This demonstration page uses our WeatherBlox Daily Observations layout. Learn more.

36.17497, -115.13722

Hourly Observations for March 28, 2018

Temp ( °F °C ) Dew Point ( °F °C ) Humidity (%) Winds ( mph kmh ) Pressure ( in mb ) Visibility ( mi km ) Precip ( " mm )
12:53 am 00:53 Clear 55 12.8 16 -8.9 21 21 SW 5 7 30.14 1021 10 16.0934 0 0
1:53 am 01:53 Clear 54 12.2 16 -8.9 22 22 WSW 3 6 30.13 1020 10 16.0934 0 0
2:53 am 02:53 Clear 53 11.7 17 -8.3 24 24 NW 8 13 30.13 1020 10 16.0934 0 0
3:53 am 03:53 Clear 54 12.2 21 -6.1 28 28 N 3 6 30.11 1020 10 16.0934 0 0
4:53 am 04:53 Clear 52 11.1 24 -4.4 34 34 NNW 5 7 30.12 1020 10 16.0934 0 0
5:53 am 05:53 Clear 55 12.8 27 -2.8 34 34 N 10 17 30.12 1020 10 16.0934 0 0
6:53 am 06:53 Sunny 54 12.2 28 -2.2 37 37 NNW 5 7 30.13 1020 10 16.0934 0 0
7:53 am 07:53 Sunny 59 15 28 -2.2 31 31 N 16 26 30.14 1021 10 16.0934 0 0
8:53 am 08:53 Sunny 63 17.2 29 -1.7 28 28 N 16 26 30.15 1021 10 16.0934 0 0
9:53 am 09:53 Sunny 67 19.4 28 -2.2 23 23 NNW 18 30 30.15 1021 10 16.0934 0 0
10:53 am 10:53 Sunny 70 21.1 28 -2.2 21 21 N 16 26 30.14 1021 10 16.0934 0 0
11:53 am 11:53 Sunny 71 21.7 28 -2.2 20 20 N 9 15 30.12 1020 10 16.0934 0 0
12:53 pm 12:53 Sunny 74 23.3 28 -2.2 18 18 N 14 22 30.09 1019 10 16.0934 0 0
1:53 pm 13:53 Sunny 76 24.4 27 -2.8 16 16 NNW 17 28 30.06 1018 10 16.0934 0 0
2:53 pm 14:53 Sunny 77 25 25 -3.9 14 14 N 14 22 30.02 1017 10 16.0934 0 0
3:53 pm 15:53 Sunny 78 25.6 25 -3.9 14 14 NW 15 24 29.99 1016 10 16.0934 0 0
4:53 pm 16:53 Sunny 79 26.1 25 -3.9 14 14 NNW 16 26 29.98 1015 10 16.0934 0 0
5:53 pm 17:53 Sunny 78 25.6 24 -4.4 13 13 NNW 13 20 29.97 1015 10 16.0934 0 0
6:53 pm 18:53 Sunny 76 24.4 24 -4.4 14 14 NW 9 15 29.96 1015 10 16.0934 0 0
7:53 pm 19:53 Clear 73 22.8 21 -6.1 14 14 NW 8 13 29.97 1015 10 16.0934 0 0
8:53 pm 20:53 Clear 70 21.1 19 -7.2 14 14 ENE 7 11 29.99 1016 10 16.0934 0 0
9:53 pm 21:53 Clear 68 20 20 -6.7 16 16 N 3 6 30 1016 10 16.0934 0 0
10:53 pm 22:53 Clear 66 18.9 23 -5 19 19 WNW 3 6 30.01 1016 10 16.0934 0 0
11:53 pm 23:53 Clear 65 18.3 24 -4.4 21 21 WSW 5 7 30.02 1017 10 16.0934 0 0

Powered by AerisWeather